User: anonymous
Location: Bojarzin Observatory
(39.7980°N, 89.7627°W)
Time: 15:01:10
(UTC-05:00)
Language:

ISS - Orbit

View from above orbital plane
View from above orbital plane
View from above satellite
View from above satellite

Ground track
Ground track

The orbit data is extracted from the following two-line orbital elements,

1 25544U 98067A   14263.50944317  .00019867  00000-0  34903-3 0  1219
2 25544 051.6468 347.1258 0002402 117.8985 006.3219 15.50499265906113
Epoch (UTC): 20 September 2014 12:13:35
Eccentricity: 0.0002402
inclination: 51.6468°
perigee height: 413 km
apogee height: 417 km
right ascension of ascending node: 347.1258°
argument of perigee: 117.8985°
revolutions per day: 15.50499265
mean anomaly at epoch: 6.3219°
orbit number at epoch: 90611

The dashed part of the orbit path shows where the satellite is in the earth's shadow,  

DLR